DW9498 Weather Reports


Display with metric or nautical units.
time (UTC)temp
F
wind
direction
speed
MPH
gust
MPH
rain 1hr
in
rain 24hr
in
rain mn
in
humidity
%
barometer
mb
20260905215355 96 221 2.0 4.0 0.00 0.00 0.00 54 1011.6
20260905214338 95 249 1.0 5.0 0.00 0.00 0.00 55 1011.8
20260905213329 94 282 0.0 4.0 0.00 0.00 0.00 56 1011.9
20260905212344 95 328 2.0 3.0 0.00 0.00 0.00 53 1012.0
20260905211358 95 221 0.0 3.0 0.00 0.00 0.00 55 1012.2
20260905210410 94 146 1.0 3.0 0.00 0.00 0.00 54 1012.5
20260905205351 94 211 1.0 6.0 0.00 0.00 0.00 56 1012.5
20260905204359 94 356 1.0 4.0 0.00 0.00 0.00 55 1012.8
20260905203348 94 314 1.0 3.0 0.00 0.00 0.00 55 1013.0
20260905202329 93 21 0.0 4.0 0.00 0.00 0.00 56 1013.2
20260905201403 93 12 1.0 3.0 0.00 0.00 0.00 53 1013.5
20260905200333 93 352 1.0 5.0 0.00 0.00 0.00 53 1014.0
20260905195328 93 289 2.0 6.0 0.00 0.00 0.00 53 1014.1
20260905194333 92 210 1.0 3.0 0.00 0.00 0.00 57 1014.1
20260905193324 92 356 2.0 6.0 0.00 0.00 0.00 57 1014.2
20260905192334 92 346 1.0 4.0 0.00 0.00 0.00 58 1014.2
20260905191340 92 355 2.0 5.0 0.00 0.00 0.00 59 1014.4
20260905190329 90 359 1.0 7.0 0.00 0.00 0.00 61 1014.6
20260905185325 90 17 3.0 8.0 0.00 0.00 0.00 60 1014.9
20260905184349 90 16 1.0 5.0 0.00 0.00 0.00 61 1015.2
20260905183338 90 354 2.0 7.0 0.00 0.00 0.00 62 1015.3
20260905182328 90 10 4.0 8.0 0.00 0.00 0.00 62 1015.5
20260905181343 89 16 2.0 7.0 0.00 0.00 0.00 63 1015.4
20260905180332 89 31 4.0 6.0 0.00 0.00 0.00 65 1015.4
20260905175324 88 20 3.0 8.0 0.00 0.00 0.00 64 1015.2
20260905174347 89 17 5.0 12.0 0.00 0.00 0.00 64 1015.3
20260905173325 89 10 1.0 8.0 0.00 0.00 0.00 64 1015.3
20260905172333 88 339 3.0 6.0 0.00 0.00 0.00 64 1015.4
20260905171338 89 27 4.0 8.0 0.00 0.00 0.00 63 1015.4
20260905170408 89 330 3.0 10.0 0.00 0.00 0.00 63 1015.3
20260905165332 89 356 3.0 9.0 0.00 0.00 0.00 62 1015.3
20260905164340 90 25 4.0 9.0 0.00 0.00 0.00 62 1015.5
20260905163349 89 340 3.0 8.0 0.00 0.00 0.00 61 1015.5
20260905162324 90 344 1.0 6.0 0.00 0.00 0.00 61 1015.3
20260905161403 89 341 0.0 0.0 0.00 0.00 0.00 62 1015.2
20260905160348 88 336 0.0 0.0 0.00 0.00 0.00 64 1015.1
20260905155335 88 327 0.0 2.0 0.00 0.00 0.00 66 1014.9
20260905154342 87 343 0.0 0.0 0.00 0.00 0.00 67 1014.9
20260905153327 86 239 0.0 0.0 0.00 0.00 0.00 67 1014.9
20260905152338 85 237 0.0 0.0 0.00 0.00 0.00 69 1014.9
20260905151334 85 237 0.0 0.0 0.00 0.00 0.00 69 1014.7
20260905150323 84 237 0.0 0.0 0.00 0.00 0.00 68 1014.7
20260905145336 84 237 0.0 0.0 0.00 0.00 0.00 68 1014.7
20260905144337 84 237 0.0 0.0 0.00 0.00 0.00 69 1014.3
20260905143326 83 237 0.0 0.0 0.00 0.00 0.00 69 1014.1
20260905142335 83 234 0.0 0.0 0.00 0.00 0.00 72 1014.0
20260905141405 82 267 0.0 0.0 0.00 0.00 0.00 73 1013.8
20260905140329 81 239 0.0 2.0 0.00 0.00 0.00 73 1013.5
20260905135336 80 257 0.0 0.0 0.00 0.00 0.00 75 1013.8
20260905134343 79 234 0.0 0.0 0.00 0.00 0.00 75 1014.0
20260905133334 78 234 0.0 0.0 0.00 0.00 0.00 77 1014.0
20260905132324 77 236 0.0 0.0 0.00 0.00 0.00 78 1013.6
20260905131329 76 235 0.0 0.0 0.00 0.00 0.00 80 1013.4
20260905130359 76 235 0.0 0.0 0.00 0.00 0.00 81 1013.4
20260905125330 75 235 0.0 0.0 0.00 0.00 0.00 82 1013.3
20260905124359 75 235 0.0 0.0 0.00 0.00 0.00 82 1013.2
20260905123327 75 235 0.0 0.0 0.00 0.00 0.00 82 1013.0
20260905122334 75 235 0.0 0.0 0.00 0.00 0.00 81 1012.8
20260905121339 75 235 0.0 0.0 0.00 0.00 0.00 81 1012.7
20260905120330 74 235 0.0 0.0 0.00 0.00 0.00 82 1012.7
20260905115326 74 235 0.0 0.0 0.00 0.00 0.00 82 1012.6
20260905114328 74 235 0.0 0.0 0.00 0.00 0.00 83 1012.7
20260905113336 74 235 0.0 0.0 0.00 0.00 0.00 83 1012.7
20260905112332 74 235 0.0 0.0 0.00 0.00 0.00 82 1012.6
20260905111405 74 235 0.0 0.0 0.00 0.00 0.00 81 1012.4
20260905110355 75 235 0.0 0.0 0.00 0.00 0.00 81 1012.4
20260905105327 75 235 0.0 0.0 0.00 0.00 0.00 81 1012.5
20260905104402 75 235 0.0 0.0 0.00 0.00 0.00 80 1012.4
20260905103330 75 235 0.0 0.0 0.00 0.00 0.00 80 1012.3
20260905102341 75 235 0.0 0.0 0.00 0.00 0.00 79 1012.2
20260905101325 76 235 0.0 0.0 0.00 0.00 0.00 79 1012.1
20260905100354 76 235 0.0 0.0 0.00 0.00 0.00 79 1012.1
20260905095326 76 235 0.0 0.0 0.00 0.00 0.00 79 1012.0
20260905094335 76 235 0.0 0.0 0.00 0.00 0.00 78 1011.9
20260905093343 76 235 0.0 0.0 0.00 0.00 0.00 78 1011.8
20260905092327 76 235 0.0 0.0 0.00 0.00 0.00 78 1011.8
20260905091335 76 235 0.0 0.0 0.00 0.00 0.00 78 1011.8
20260905090345 76 235 0.0 0.0 0.00 0.00 0.00 79 1012.0
20260905085329 76 235 0.0 0.0 0.00 0.00 0.00 80 1012.0
20260905084347 76 235 0.0 0.0 0.00 0.00 0.00 81 1012.1
20260905083335 76 235 0.0 0.0 0.00 0.00 0.00 81 1012.2
20260905082350 76 235 0.0 0.0 0.00 0.00 0.00 81 1012.2
20260905081345 76 235 0.0 0.0 0.00 0.00 0.00 81 1012.3
20260905080350 76 235 0.0 0.0 0.00 0.00 0.00 81 1012.4
20260905075342 76 235 0.0 0.0 0.00 0.00 0.00 80 1012.5
20260905074342 77 235 0.0 0.0 0.00 0.00 0.00 80 1012.6
20260905073332 77 235 0.0 0.0 0.00 0.00 0.00 79 1012.6
20260905072324 77 235 0.0 0.0 0.00 0.00 0.00 79 1012.7
20260905071355 78 235 0.0 0.0 0.00 0.00 0.00 78 1012.7
20260905070339 78 235 0.0 0.0 0.00 0.00 0.00 77 1012.7
20260905065328 79 235 0.0 0.0 0.00 0.00 0.00 77 1012.8
20260905064338 79 235 0.0 0.0 0.00 0.00 0.00 76 1012.9
20260905063343 80 235 0.0 0.0 0.00 0.00 0.00 75 1012.9
20260905062328 80 235 0.0 0.0 0.00 0.00 0.00 75 1012.8
20260905061337 80 235 0.0 0.0 0.00 0.00 0.00 75 1012.8
20260905060330 80 234 0.0 0.0 0.00 0.00 0.00 75 1012.8
20260905055324 80 242 0.0 0.0 0.00 0.00 0.00 75 1012.8
20260905054325 80 208 0.0 0.0 0.00 0.00 0.00 76 1012.8
20260905053351 80 208 0.0 0.0 0.00 0.00 0.00 76 1012.7
20260905052336 81 208 0.0 0.0 0.00 0.00 0.00 76 1012.7
20260905051335 81 208 0.0 0.0 0.00 0.00 0.00 75 1012.7
20260905050323 82 208 0.0 0.0 0.00 0.00 0.00 74 1012.7
20260905045333 82 208 0.0 0.0 0.00 0.00 0.00 74 1012.6
20260905044338 82 208 0.0 0.0 0.00 0.00 0.00 74 1012.5
20260905043347 82 208 0.0 0.0 0.00 0.00 0.00 74 1012.4
20260905042331 83 208 0.0 0.0 0.00 0.00 0.00 74 1012.3
20260905041339 83 208 0.0 0.0 0.00 0.00 0.00 74 1012.2
20260905040410 83 208 0.0 0.0 0.00 0.00 0.00 74 1012.2
20260905035334 83 212 0.0 0.0 0.00 0.00 0.00 73 1012.1
20260905034342 84 212 0.0 0.0 0.00 0.00 0.00 73 1012.2
20260905033324 84 212 0.0 0.0 0.00 0.00 0.00 72 1012.1
20260905032335 85 212 0.0 0.0 0.00 0.00 0.00 71 1012.0
20260905031342 86 212 0.0 0.0 0.00 0.00 0.00 71 1011.9
20260905030328 86 211 0.0 0.0 0.00 0.00 0.00 70 1011.9
20260905025342 86 208 0.0 1.0 0.00 0.00 0.00 69 1011.8
20260905024344 87 166 0.0 0.0 0.00 0.00 0.00 69 1011.8
20260905023350 87 166 0.0 0.0 0.00 0.00 0.00 69 1011.8
20260905022331 87 166 0.0 0.0 0.00 0.00 0.00 69 1011.7
20260905021407 87 160 0.0 0.0 0.00 0.00 0.00 68 1011.7
20260905020327 88 160 0.0 0.0 0.00 0.00 0.00 68 1011.7
20260905015328 87 171 0.0 0.0 0.00 0.00 0.00 69 1011.5
20260905014334 87 154 0.0 0.0 0.00 0.00 0.00 69 1011.3
20260905013347 88 154 0.0 0.0 0.00 0.00 0.00 69 1011.2
20260905012331 88 154 0.0 0.0 0.00 0.00 0.00 68 1011.0
20260905011334 89 154 0.0 0.0 0.00 0.00 0.00 67 1011.0
20260905010346 90 154 0.0 0.0 0.00 0.00 0.00 66 1011.0
20260905005335 91 154 0.0 0.0 0.00 0.00 0.00 66 1010.9
20260905004344 92 154 0.0 0.0 0.00 0.00 0.00 64 1010.9
20260905003331 93 154 0.0 0.0 0.00 0.00 0.00 62 1010.9
20260905002324 93 154 0.0 0.0 0.00 0.00 0.00 60 1010.8
20260905001402 94 153 0.0 0.0 0.00 0.00 0.00 59 1010.8
20260905000350 94 155 0.0 0.0 0.00 0.00 0.00 58 1010.8
20260904235327 94 171 0.0 3.0 0.00 0.00 0.00 58 1010.8
20260904234329 94 171 1.0 3.0 0.00 0.00 0.00 58 1010.9
20260904233337 95 191 0.0 1.0 0.00 0.00 0.00 57 1010.9
20260904232329 96 162 0.0 2.0 0.00 0.00 0.00 55 1010.9
20260904231400 98 244 0.0 3.0 0.00 0.00 0.00 53 1011.1
20260904230329 98 146 0.0 1.0 0.00 0.00 0.00 53 1011.0
20260904225334 97 149 0.0 4.0 0.00 0.00 0.00 54 1011.0
20260904224340 97 185 0.0 2.0 0.00 0.00 0.00 54 1011.0
20260904223351 97 261 0.0 3.0 0.00 0.00 0.00 54 1011.0
20260904222333 97 176 1.0 4.0 0.00 0.00 0.00 53 1011.1
20260904221333 98 121 1.0 5.0 0.00 0.00 0.00 52 1011.0
20260904220340 98 228 0.0 4.0 0.00 0.00 0.00 53 1010.9